[[{"header":{"parameterUnit":"m.s-1","parameterCategory":1,"la1":30.2991,"la2":30.254,"lo1":-89.0895,"lo2":-89.0444,"dy":0.0017,"dx":0.0017,"nx":28,"ny":28,"refTime":"2025-03-24T09:00:00:Z","depth":0,"parameterNumber":2,"parameterNumberName":"U-component_of_WINDS"},"data":[0,0,0,0,0,0,0,0,0,0,0,0,0,0,0,0,0,0,0,0,0,0,0,0,0,0,0,0,0,0,0,0,0,0,0,0,0,0,0,0,0,0,0,0,0,0,0,0,0,0,0,0,0,0,0,0,0,0,0.5954,0.5954,0,0.5964,0.5964,0.5964,0.5959,0.5959,0.5959,0.5959,0.5969,0.597,0.597,0,0,0,0,0,0,0,0,0,0,0,0,0,0.593,0.5931,0.5954,0.5954,0.5954,0.5964,0.5964,0.5964,0.5959,0.5959,0.5959,0.5959,0.5969,0.597,0.597,0,0,0,0,0,0,0,0,0,0,0,0,0,0.5941,0.5931,0.5954,0.5953,0.5953,0.5964,0.5964,0.5964,0.596,0.5959,0.5959,0.5958,0.5969,0.597,0.597,0.5983,0,0,0.5973,0.5973,0,0,0,0,0,0,0,0,0.594,0.5941,0.5953,0.5953,0.5953,0.596,0.596,0.5971,0.596,0.5957,0.5959,0.5958,0.5967,0.5967,0.597,0.5984,0.5984,0.5973,0.5973,0.5974,0.5974,0,0,0,0,0,0,0,0.5939,0.5941,0.5958,0.5953,0.5953,0.5952,0.5953,0.5962,0.5964,0.5957,0.5957,0.5958,0.5966,0.597,0.5971,0.5984,0.5973,0.5974,0.5974,0.5974,0.601,0.6011,0,0,0,0,0,0,0.5938,0.594,0.5957,0.5958,0.5945,0.5953,0.5954,0.5958,0.5964,0.5964,0.5958,0.5958,0.5968,0.597,0.5971,0.5987,0.5974,0.5975,0.5975,0.601,0.601,0.6011,0,0,0,0,0,0,0.5938,0.594,0.5957,0.5949,0.5951,0.5954,0.5958,0.5959,0.5962,0.5965,0.5965,0.5961,0.5968,0.597,0.5981,0.5987,0.5975,0.5976,0.6009,0.601,0.6011,0.6019,0,0,0,0,0,0,0.5937,0.594,0.5944,0.5949,0.5952,0.5966,0.5959,0.5959,0.5963,0.5962,0.5967,0.5968,0.5968,0.5979,0.5981,0.5988,0.5976,0.6009,0.601,0.601,0.6018,0.6019,0.6021,0,0,0,0,0,0.5937,0.5946,0.5945,0.5947,0.5957,0.5967,0.5968,0.5968,0.5964,0.5968,0.5971,0.5968,0.5986,0.5981,0.5983,0.599,0.6008,0.6009,0.601,0.6017,0.6019,0.6021,0,0,0,0,0,0,0.5941,0.5947,0.5945,0.5956,0.5961,0.5966,0.5972,0.597,0.5976,0.5975,0.5975,0.5976,0.5987,0.599,0.5983,0.6003,0.5997,0.5998,0.6001,0.6003,0.6005,0.6004,0.5977,0,0,0,0,0,0.5944,0.5951,0.5955,0.5964,0.5967,0.5969,0.5973,0.5973,0.5978,0.5979,0.5982,0.5987,0.5994,0.5999,0.6005,0.6018,0.602,0.6024,0.6026,0.6027,0.6029,0.6036,0.6039,0.6014,0.6014,0.6014,0,0,0.5949,0.5952,0.5957,0.5966,0.5969,0.5977,0.5971,0.5978,0.5984,0.5981,0.5991,0.5994,0.5999,0.6011,0.6017,0.6014,0.6036,0.6029,0.603,0.603,0.6038,0.604,0.6042,0.6015,0.6015,0.6015,0,0,0.5961,0.5965,0.5974,0.5978,0.5984,0.5985,0.5987,0.5992,0.5994,0.6005,0.6003,0.601,0.6021,0.6026,0.603,0.6046,0.6044,0.6048,0.6056,0.6064,0.6066,0.6068,0.6074,0.6076,0.605,0.605,0.605,0,0.5967,0.5978,0.5978,0.5987,0.5991,0.5989,0.5998,0.6002,0.601,0.6013,0.6009,0.6025,0.6029,0.6042,0.6046,0.6049,0.6052,0.6047,0.6066,0.6067,0.6069,0.6075,0.6077,0.605,0.605,0.605,0.605,0,0.5984,0.5992,0.5998,0.6006,0.6011,0.602,0.6022,0.6028,0.6028,0.603,0.6041,0.6046,0.6054,0.6057,0.6057,0.6071,0.6069,0.6066,0.6059,0.6072,0.6077,0.6079,0.6051,0.6051,0.605,0.605,0,0,0.5999,0.6008,0.601,0.6014,0.6022,0.6028,0.6037,0.6045,0.605,0.6056,0.6063,0.6075,0.6072,0.6076,0.6077,0.6084,0.6097,0.608,0.608,0.6083,0.6113,0.6116,0.6118,0.6096,0.6096,0.6097,0.6113,0,0.6012,0.6028,0.6029,0.6044,0.6051,0.6051,0.6059,0.6064,0.6067,0.6074,0.6077,0.6085,0.6081,0.6084,0.609,0.6094,0.6103,0.6093,0.6103,0.6104,0.6101,0.6121,0.6123,0.6138,0.6115,0.6116,0.6116,0,0.6029,0.6036,0.6051,0.6059,0.6062,0.6069,0.6077,0.6084,0.6091,0.6092,0.6098,0.6098,0.6108,0.6102,0.6116,0.6109,0.6114,0.6116,0.6117,0.6117,0.611,0.6122,0.6143,0.6145,0.6119,0.6119,0.6119,0,0.6038,0.6052,0.6063,0.6066,0.6075,0.608,0.6084,0.609,0.6096,0.6103,0.6106,0.6115,0.6119,0.6126,0.6129,0.6124,0.6143,0.6137,0.6145,0.6145,0.6148,0.6148,0.617,0.6152,0.6152,0.6152,0.6152,0,0.6053,0.6062,0.6067,0.6074,0.6085,0.6087,0.6098,0.6102,0.6108,0.6115,0.6115,0.6123,0.6126,0.6134,0.6136,0.6148,0.615,0.6152,0.6152,0.6151,0.6151,0.6154,0.6153,0.6152,0.6152,0.6152,0.6152,0,0.6064,0.6068,0.608,0.6088,0.609,0.6098,0.6105,0.6111,0.6115,0.6125,0.6127,0.6132,0.6142,0.6146,0.6157,0.6159,0.6172,0.6172,0.617,0.617,0.6178,0.6177,0.6202,0.6206,0.6186,0.6186,0.6186,0,0.6073,0.608,0.6089,0.6095,0.6099,0.6107,0.6113,0.6116,0.6122,0.6131,0.6137,0.6147,0.6155,0.617,0.6175,0.6184,0.6184,0.6193,0.6185,0.6185,0.6184,0.6184,0.6185,0.6193,0.6194,0.6194,0.6194,0,0.6088,0.609,0.6098,0.6107,0.6114,0.6121,0.6128,0.6133,0.6137,0.6144,0.6154,0.616,0.6173,0.6182,0.6192,0.6197,0.6196,0.6196,0.6199,0.6198,0.6196,0.6197,0.6173,0.6196,0.6195,0.6195,0.6195,0.6195,0.6098,0.6105,0.6113,0.6122,0.6128,0.6135,0.6142,0.6147,0.6155,0.6166,0.6167,0.6178,0.6186,0.6199,0.6204,0.6213,0.6211,0.6214,0.6215,0.6216,0.6216,0.6196,0.6215,0.6215,0.6215,0.6215,0.6215,0,0.6113,0.6118,0.6127,0.6137,0.6145,0.6145,0.6153,0.6159,0.6169,0.6176,0.6185,0.6197,0.6207,0.6213,0.6223,0.6229,0.623,0.6232,0.6231,0.6232,0.6218,0.6215,0.6232,0.6232,0.6232,0.6232,0.6232,0.6232,0.6122,0.6133,0.6137,0.6152,0.6157,0.6168,0.6173,0.6179,0.6186,0.6199,0.6208,0.6212,0.6219,0.623,0.624,0.6241,0.6245,0.6248,0.6249,0.6235,0.6233,0.6232,0.6229,0.6249,0.6249,0.6263,0.6263,0.6263]},{"header":{"parameterUnit":"m.s-1","parameterCategory":1,"la1":30.2991,"la2":30.254,"lo1":-89.0895,"lo2":-89.0444,"dy":0.0017,"dx":0.0017,"nx":28,"ny":28,"refTime":"2025-03-24T09:00:00:Z","depth":0,"parameterNumber":3,"parameterNumberName":"V-component_of_WINDS"},"data":[0,0,0,0,0,0,0,0,0,0,0,0,0,0,0,0,0,0,0,0,0,0,0,0,0,0,0,0,0,0,0,0,0,0,0,0,0,0,0,0,0,0,0,0,0,0,0,0,0,0,0,0,0,0,0,0,0,0,-0.5731,-0.5731,0,-0.576,-0.576,-0.576,-0.5775,-0.5775,-0.5775,-0.5775,-0.5802,-0.5803,-0.5803,0,0,0,0,0,0,0,0,0,0,0,0,0,-0.5687,-0.5688,-0.5731,-0.5731,-0.5732,-0.576,-0.576,-0.576,-0.5775,-0.5775,-0.5775,-0.5775,-0.5802,-0.5803,-0.5803,0,0,0,0,0,0,0,0,0,0,0,0,0,-0.571,-0.5688,-0.5731,-0.5742,-0.5744,-0.576,-0.576,-0.5761,-0.5775,-0.5775,-0.5775,-0.5775,-0.5801,-0.5802,-0.5803,-0.5809,0,0,-0.5807,-0.5807,0,0,0,0,0,0,0,0,-0.5708,-0.5711,-0.574,-0.5742,-0.5743,-0.5764,-0.5754,-0.5777,-0.5775,-0.5763,-0.5775,-0.5775,-0.5789,-0.5791,-0.5796,-0.5811,-0.5812,-0.5807,-0.5807,-0.5808,-0.5808,0,0,0,0,0,0,0,-0.5707,-0.571,-0.5742,-0.5741,-0.5743,-0.5745,-0.5749,-0.5759,-0.5775,-0.5764,-0.5765,-0.5769,-0.579,-0.5795,-0.5797,-0.5812,-0.5807,-0.5808,-0.5808,-0.5809,-0.5833,-0.5833,0,0,0,0,0,0,-0.5704,-0.5709,-0.5741,-0.5743,-0.5726,-0.5746,-0.575,-0.5757,-0.5775,-0.5778,-0.5768,-0.5769,-0.5794,-0.5796,-0.5798,-0.5806,-0.5808,-0.5809,-0.5809,-0.5833,-0.5833,-0.5833,0,0,0,0,0,0,-0.5703,-0.5706,-0.574,-0.5726,-0.5731,-0.5747,-0.5755,-0.5758,-0.5763,-0.5779,-0.5782,-0.5771,-0.5794,-0.5797,-0.5807,-0.5807,-0.5809,-0.581,-0.5833,-0.5833,-0.5833,-0.5823,0,0,0,0,0,0,-0.5701,-0.5706,-0.5709,-0.5726,-0.5732,-0.5749,-0.5755,-0.5758,-0.5765,-0.5766,-0.5782,-0.5785,-0.5794,-0.5805,-0.5808,-0.5809,-0.5811,-0.5833,-0.5833,-0.5833,-0.5823,-0.5822,-0.5822,0,0,0,0,0,-0.57,-0.5704,-0.5709,-0.5713,-0.5736,-0.5749,-0.5752,-0.5763,-0.5765,-0.5768,-0.5778,-0.5784,-0.5807,-0.5806,-0.5809,-0.5811,-0.5833,-0.5833,-0.5833,-0.5823,-0.5822,-0.5822,0,0,0,0,0,0,-0.5686,-0.5707,-0.5712,-0.5723,-0.5734,-0.5751,-0.5755,-0.5762,-0.5772,-0.5773,-0.5785,-0.5789,-0.5798,-0.5805,-0.5804,-0.5817,-0.582,-0.5821,-0.5812,-0.5811,-0.5811,-0.5809,-0.5812,0,0,0,0,0,-0.5684,-0.5694,-0.5711,-0.5719,-0.5725,-0.5739,-0.5745,-0.5753,-0.5765,-0.5769,-0.578,-0.5791,-0.58,-0.5806,-0.5816,-0.5824,-0.5828,-0.5827,-0.5826,-0.5825,-0.5826,-0.5831,-0.583,-0.5833,-0.5833,-0.5833,0,0,-0.568,-0.5693,-0.5698,-0.5717,-0.5726,-0.5736,-0.5743,-0.5752,-0.5759,-0.577,-0.5781,-0.5789,-0.5802,-0.5811,-0.5815,-0.5817,-0.5826,-0.5825,-0.5825,-0.5826,-0.5831,-0.583,-0.583,-0.5833,-0.5833,-0.5833,0,0,-0.5678,-0.5689,-0.5697,-0.5707,-0.5722,-0.5731,-0.5733,-0.5749,-0.5755,-0.5766,-0.5775,-0.5783,-0.5799,-0.5808,-0.5814,-0.5816,-0.5822,-0.5819,-0.5816,-0.582,-0.582,-0.582,-0.5821,-0.5821,-0.5819,-0.5819,-0.5819,0,-0.5672,-0.5687,-0.57,-0.5709,-0.5717,-0.5728,-0.5736,-0.5744,-0.5761,-0.5766,-0.5768,-0.5789,-0.5798,-0.581,-0.581,-0.5815,-0.5817,-0.5817,-0.5819,-0.5819,-0.5819,-0.582,-0.582,-0.5819,-0.5819,-0.5819,-0.5819,0,-0.5678,-0.5688,-0.5692,-0.571,-0.5718,-0.5726,-0.5739,-0.5746,-0.5753,-0.5762,-0.5773,-0.5784,-0.5797,-0.58,-0.5806,-0.5812,-0.5813,-0.5817,-0.582,-0.5818,-0.5819,-0.582,-0.5818,-0.5818,-0.5818,-0.5818,0,0,-0.5668,-0.5692,-0.5694,-0.5702,-0.5719,-0.5727,-0.5735,-0.5748,-0.5754,-0.5765,-0.5772,-0.5786,-0.579,-0.5797,-0.5805,-0.5809,-0.5809,-0.5812,-0.5813,-0.5811,-0.5816,-0.5813,-0.5813,-0.5813,-0.5813,-0.5814,-0.5815,0,-0.5668,-0.5686,-0.5697,-0.5709,-0.5719,-0.573,-0.5738,-0.5749,-0.5757,-0.5766,-0.5775,-0.5785,-0.5789,-0.5794,-0.5799,-0.5808,-0.581,-0.5808,-0.582,-0.582,-0.5816,-0.5814,-0.5811,-0.5812,-0.5816,-0.5816,-0.5816,0,-0.5672,-0.5683,-0.5697,-0.5713,-0.5718,-0.5724,-0.5737,-0.5746,-0.5758,-0.5764,-0.5773,-0.5781,-0.579,-0.5792,-0.5804,-0.5803,-0.5808,-0.5813,-0.5814,-0.5815,-0.5818,-0.5815,-0.5812,-0.5813,-0.5816,-0.5816,-0.5816,0,-0.5663,-0.5682,-0.5693,-0.5699,-0.5719,-0.5723,-0.5731,-0.5744,-0.5751,-0.5762,-0.5767,-0.5778,-0.5784,-0.5793,-0.5803,-0.5804,-0.5814,-0.5818,-0.5819,-0.5819,-0.5821,-0.5821,-0.5819,-0.5824,-0.5824,-0.5824,-0.5824,0,-0.5662,-0.567,-0.5689,-0.5696,-0.5704,-0.5718,-0.5726,-0.5735,-0.5746,-0.5754,-0.5764,-0.5771,-0.5785,-0.5793,-0.5801,-0.581,-0.5813,-0.5818,-0.582,-0.5817,-0.5816,-0.582,-0.5821,-0.5824,-0.5824,-0.5824,-0.5824,0,-0.5654,-0.5668,-0.568,-0.5698,-0.5702,-0.5708,-0.5723,-0.5729,-0.5739,-0.5748,-0.5751,-0.5766,-0.5776,-0.5788,-0.5802,-0.5808,-0.5816,-0.5819,-0.5812,-0.5813,-0.5814,-0.5814,-0.5815,-0.5816,-0.582,-0.582,-0.582,0,-0.5653,-0.566,-0.5678,-0.5685,-0.5693,-0.5703,-0.5711,-0.5724,-0.5731,-0.5746,-0.5751,-0.5762,-0.5772,-0.5788,-0.58,-0.581,-0.5814,-0.5813,-0.5815,-0.5812,-0.5814,-0.5813,-0.5814,-0.5813,-0.5813,-0.5812,-0.5812,0,-0.565,-0.5656,-0.5667,-0.568,-0.5689,-0.57,-0.5711,-0.5716,-0.5731,-0.5738,-0.575,-0.5758,-0.5773,-0.5784,-0.5796,-0.5804,-0.581,-0.5812,-0.5813,-0.581,-0.5806,-0.5808,-0.5811,-0.5812,-0.5812,-0.5812,-0.5812,-0.5812,-0.5645,-0.5652,-0.5666,-0.5678,-0.5688,-0.5698,-0.5705,-0.5716,-0.5726,-0.5739,-0.5746,-0.5758,-0.577,-0.5787,-0.5795,-0.5803,-0.5805,-0.5807,-0.5807,-0.5807,-0.5807,-0.5804,-0.5806,-0.5806,-0.5806,-0.5806,-0.5806,0,-0.5643,-0.5653,-0.5663,-0.5679,-0.5688,-0.5695,-0.5707,-0.5714,-0.5725,-0.5736,-0.5746,-0.5759,-0.577,-0.5782,-0.5794,-0.5798,-0.5802,-0.5801,-0.5801,-0.5802,-0.5804,-0.5802,-0.5798,-0.5798,-0.5798,-0.5798,-0.5798,-0.5798,-0.5642,-0.5653,-0.5661,-0.5677,-0.5687,-0.5699,-0.5705,-0.5715,-0.5724,-0.5738,-0.5748,-0.5756,-0.5768,-0.578,-0.579,-0.5794,-0.5798,-0.5796,-0.58,-0.5801,-0.5802,-0.5803,-0.5801,-0.5797,-0.5797,-0.5798,-0.5798,-0.5798]}]]